Location: Monrovia
(34.7865°N, 86.7139°W)
Time: 21:55:22
(UTC+00:00)

Resurs 01 Rocket - Pass Details

Date: 14 July 2020
Orbit: 635 x 644 km, 98.0° (Epoch: 08 August)

Event Time Altitude Azimuth Distance (km) Brightness Sun altitude
Exits shadow 01:31:17 - 122° (ESE) 2,222 3.7 -6.2°
Reaches altitude 10° 01:31:55 10° 117° (ESE) 2,018 3.5 -6.3°
Maximum altitude 01:35:11 21° 69° (ENE) 1,436 3.1 -6.9°
Drops below altitude 10° 01:38:28 10° 21° (NNE) 2,025 4.4 -7.4°
Sets 01:41:06 0° 5° (N) 2,937 5.4 -7.9°
